Погода в Новодмитровке

Украина / Херсонская область     47°21′41″N   33°21′03″E
темп.,
°C
ветер,
м/с
пор.,
м/с
влажн.,
%
обл.,
%
осадки,
мм/ч
давл.,
гПа
погр.,
м
26 октября, вт
вт2600:00+3в33600 0.0 103425
03:00+2вюв22630 0.0 103318
06:00+2вюв22630 0.0 103419
09:00+4вюв35490 0.0 1033201
12:00+9юв44310 0.0 1032927
15:00+11ююв34290 0.0 10301096
18:00+7вюв33440 0.0 103021
21:00+5ююв47640 0.0 1030141
27 октября, ср
ср2700:00+3ююв35760 0.0 103074
03:00+2юв33830 0.0 102927
06:00+2вюв22820 0.0 102814
09:00+5вюв22650 0.0 1028113
12:00+10ююз22480 0.0 1027750
15:00+12з23390 0.0 10251004
18:00+9зсз22465 0.0 102510
21:00+7зсз116479 0.0 102610
28 октября, чт
чт2800:00+7з3375100 0.0 102631
03:00+6з3387100 0.0 102629
06:00+6зсз2283100 0.0 102615
09:00+8з2363100 0.0 1027112
12:00+14з454970 0.0 1026643
15:00+16з564392 0.0 10241115
18:00+12з4658100 0.0 102484
21:00+11з486610 0.0 1024131
29 октября, пт
пт2900:00+10зсз477023 0.0 1024118
03:00+10ссз357798 0.0 102467
06:00+11ссз357886 0.0 1025115
09:00+11ссв35815 0.0 1027193
12:00+16св34545 0.0 1027966
15:00+17ссв33455 0.0 10271378
18:00+13в33600 0.0 102837
21:00+10всв33700 0.0 102927
30 октября, сб
сб3000:00+9всв45760 0.0 103081
03:00+7в46840 0.0 1031112
06:00+6вюв47920 0.0 1032139
09:00+8вюв48745 0.0 1033255
12:00+13вюв56525 0.0 1033788
15:00+15вюв56365 0.0 1032987
18:00+10юв47410 0.0 103298
21:00+7юв49590 0.0 1033175